| time (UTC) | temp C | wind direction | speed KPH | gust KPH | rain 1hr cm | rain 24hr cm | rain mn cm | humidity % | barometer mb |
| 20260509185904 | 35 | 352 | 4.8 | 9.7 | 0.00 | 0.00 | 0.00 | 11 | 1012.0 |
| 20260509184903 | 36 | 200 | 3.2 | 9.7 | 0.00 | 0.00 | 0.00 | 11 | 1012.1 |
| 20260509184404 | 35 | 351 | 3.2 | 9.7 | 0.00 | 0.00 | 0.00 | 11 | 1012.1 |
| 20260509183904 | 35 | 248 | 3.2 | 9.7 | 0.00 | 0.00 | 0.00 | 11 | 1012.2 |
| 20260509183404 | 35 | 191 | 1.6 | 14.5 | 0.00 | 0.00 | 0.00 | 12 | 1012.3 |
| 20260509182904 | 35 | 229 | 3.2 | 14.5 | 0.00 | 0.00 | 0.00 | 12 | 1012.4 |
| 20260509182404 | 34 | 287 | 3.2 | 9.7 | 0.00 | 0.00 | 0.00 | 13 | 1012.5 |
| 20260509181903 | 33 | 223 | 1.6 | 11.3 | 0.00 | 0.00 | 0.00 | 13 | 1012.5 |
| 20260509181404 | 34 | 226 | 4.8 | 11.3 | 0.00 | 0.00 | 0.00 | 12 | 1012.6 |
| 20260509180903 | 33 | 245 | 4.8 | 8.0 | 0.00 | 0.00 | 0.00 | 13 | 1012.7 |
| 20260509180403 | 33 | 262 | 1.6 | 4.8 | 0.00 | 0.00 | 0.00 | 13 | 1012.7 |
| 20260509175903 | 33 | 220 | 1.6 | 4.8 | 0.00 | 0.00 | 0.00 | 12 | 1012.8 |
| 20260509174904 | 33 | 234 | 3.2 | 8.0 | 0.00 | 0.00 | 0.00 | 14 | 1013.0 |
| 20260509174403 | 32 | 237 | 1.6 | 9.7 | 0.00 | 0.00 | 0.00 | 13 | 1012.9 |
| 20260509173903 | 33 | 229 | 4.8 | 9.7 | 0.00 | 0.00 | 0.00 | 13 | 1012.9 |
| 20260509173404 | 32 | 239 | 4.8 | 9.7 | 0.00 | 0.00 | 0.00 | 14 | 1013.0 |
| 20260509172904 | 32 | 53 | 1.6 | 9.7 | 0.00 | 0.00 | 0.00 | 14 | 1013.0 |
| 20260509172404 | 32 | 301 | 3.2 | 9.7 | 0.00 | 0.00 | 0.00 | 14 | 1013.1 |
| 20260509171404 | 32 | 274 | 3.2 | 4.8 | 0.00 | 0.00 | 0.00 | 15 | 1013.2 |
| 20260509170904 | 32 | 228 | 1.6 | 4.8 | 0.00 | 0.00 | 0.00 | 15 | 1013.2 |
| 20260509170404 | 32 | 255 | 3.2 | 4.8 | 0.00 | 0.00 | 0.00 | 15 | 1013.3 |
| 20260509023903 | 30 | 8 | 1.6 | 3.2 | 0.00 | 0.00 | 0.00 | 14 | 1010.0 |
| 20260509022902 | 31 | 339 | 0.0 | 4.8 | 0.00 | 0.00 | 0.00 | 13 | 1009.9 |
| 20260509022403 | 31 | 36 | 0.0 | 4.8 | 0.00 | 0.00 | 0.00 | 13 | 1009.8 |
| 20260509021902 | 31 | 315 | 1.6 | 4.8 | 0.00 | 0.00 | 0.00 | 13 | 1009.8 |
| 20260509021402 | 31 | 256 | 1.6 | 4.8 | 0.00 | 0.00 | 0.00 | 12 | 1009.7 |
| 20260509020903 | 31 | 133 | 1.6 | 4.8 | 0.00 | 0.00 | 0.00 | 12 | 1009.7 |
| 20260509020402 | 32 | 241 | 1.6 | 4.8 | 0.00 | 0.00 | 0.00 | 12 | 1009.6 |
| 20260509015903 | 32 | 293 | 1.6 | 9.7 | 0.00 | 0.00 | 0.00 | 12 | 1009.7 |
| 20260509015403 | 32 | 207 | 1.6 | 11.3 | 0.00 | 0.00 | 0.00 | 12 | 1009.6 |
| 20260509014903 | 32 | 280 | 3.2 | 11.3 | 0.00 | 0.00 | 0.00 | 12 | 1009.6 |
| 20260509013903 | 32 | 234 | 4.8 | 12.9 | 0.00 | 0.00 | 0.00 | 11 | 1009.5 |
| 20260509013403 | 32 | 219 | 3.2 | 12.9 | 0.00 | 0.00 | 0.00 | 11 | 1009.4 |
| 20260509012402 | 33 | 214 | 3.2 | 14.5 | 0.00 | 0.00 | 0.00 | 11 | 1009.4 |
| 20260509011902 | 33 | 251 | 4.8 | 12.9 | 0.00 | 0.00 | 0.00 | 11 | 1009.4 |
| 20260509011402 | 33 | 246 | 3.2 | 12.9 | 0.00 | 0.00 | 0.00 | 11 | 1009.5 |
| 20260509010902 | 33 | 214 | 4.8 | 12.9 | 0.00 | 0.00 | 0.00 | 11 | 1009.4 |
| 20260509005902 | 33 | 220 | 4.8 | 11.3 | 0.00 | 0.00 | 0.00 | 11 | 1009.4 |
| 20260509005403 | 33 | 70 | 3.2 | 11.3 | 0.00 | 0.00 | 0.00 | 11 | 1009.4 |
| 20260509004902 | 33 | 218 | 4.8 | 12.9 | 0.00 | 0.00 | 0.00 | 11 | 1009.5 |
| 20260509004403 | 33 | 241 | 4.8 | 12.9 | 0.00 | 0.00 | 0.00 | 11 | 1009.4 |
| 20260509003903 | 34 | 183 | 4.8 | 12.9 | 0.00 | 0.00 | 0.00 | 11 | 1009.5 |
| 20260509003403 | 34 | 299 | 3.2 | 8.0 | 0.00 | 0.00 | 0.00 | 11 | 1009.5 |
| 20260509002903 | 34 | 262 | 1.6 | 12.9 | 0.00 | 0.00 | 0.00 | 10 | 1009.5 |
| 20260509002402 | 34 | 11 | 4.8 | 14.5 | 0.00 | 0.00 | 0.00 | 10 | 1009.5 |
| 20260509001903 | 34 | 205 | 4.8 | 20.9 | 0.00 | 0.00 | 0.00 | 10 | 1009.6 |
| 20260509001402 | 34 | 204 | 4.8 | 20.9 | 0.00 | 0.00 | 0.00 | 10 | 1009.6 |
| 20260509000403 | 35 | 262 | 3.2 | 11.3 | 0.00 | 0.00 | 0.00 | 10 | 1009.6 |
| 20260508235903 | 35 | 230 | 4.8 | 12.9 | 0.00 | 0.00 | 0.00 | 10 | 1009.5 |
| 20260508235402 | 34 | 317 | 4.8 | 19.3 | 0.00 | 0.00 | 0.00 | 10 | 1009.5 |
| 20260508234902 | 35 | 312 | 8.0 | 19.3 | 0.00 | 0.00 | 0.00 | 10 | 1009.6 |
| 20260508234403 | 35 | 313 | 4.8 | 14.5 | 0.00 | 0.00 | 0.00 | 10 | 1009.6 |
| 20260508233902 | 35 | 253 | 3.2 | 14.5 | 0.00 | 0.00 | 0.00 | 10 | 1009.6 |
| 20260508233403 | 35 | 235 | 4.8 | 19.3 | 0.00 | 0.00 | 0.00 | 9 | 1009.7 |
| 20260508232403 | 35 | 189 | 6.4 | 22.5 | 0.00 | 0.00 | 0.00 | 10 | 1009.8 |
| 20260508231903 | 35 | 236 | 3.2 | 14.5 | 0.00 | 0.00 | 0.00 | 10 | 1009.7 |
| 20260508231402 | 35 | 238 | 3.2 | 11.3 | 0.00 | 0.00 | 0.00 | 10 | 1009.9 |
| 20260508230403 | 35 | 30 | 4.8 | 11.3 | 0.00 | 0.00 | 0.00 | 10 | 1009.9 |
| 20260508225903 | 35 | 235 | 4.8 | 11.3 | 0.00 | 0.00 | 0.00 | 10 | 1009.9 |
| 20260508225403 | 35 | 214 | 4.8 | 19.3 | 0.00 | 0.00 | 0.00 | 10 | 1009.9 |
| 20260508224902 | 35 | 215 | 4.8 | 19.3 | 0.00 | 0.00 | 0.00 | 10 | 1010.0 |
| 20260508223903 | 36 | 238 | 6.4 | 16.1 | 0.00 | 0.00 | 0.00 | 10 | 1010.0 |
| 20260508223403 | 36 | 205 | 6.4 | 16.1 | 0.00 | 0.00 | 0.00 | 10 | 1010.2 |
| 20260508222903 | 35 | 302 | 4.8 | 11.3 | 0.00 | 0.00 | 0.00 | 9 | 1010.3 |
| 20260508222403 | 35 | 213 | 4.8 | 20.9 | 0.00 | 0.00 | 0.00 | 10 | 1010.3 |
| 20260508221403 | 35 | 254 | 3.2 | 16.1 | 0.00 | 0.00 | 0.00 | 10 | 1010.5 |
| 20260508220903 | 35 | 227 | 4.8 | 20.9 | 0.00 | 0.00 | 0.00 | 10 | 1010.5 |
| 20260508220403 | 35 | 211 | 6.4 | 20.9 | 0.00 | 0.00 | 0.00 | 11 | 1010.6 |
| 20260508215903 | 35 | 224 | 3.2 | 20.9 | 0.00 | 0.00 | 0.00 | 11 | 1010.6 |
| 20260508215403 | 36 | 280 | 4.8 | 20.9 | 0.00 | 0.00 | 0.00 | 11 | 1010.8 |
| 20260508214903 | 35 | 215 | 4.8 | 14.5 | 0.00 | 0.00 | 0.00 | 11 | 1010.8 |
| 20260508214404 | 35 | 234 | 4.8 | 14.5 | 0.00 | 0.00 | 0.00 | 12 | 1011.0 |
| 20260508213903 | 35 | 278 | 6.4 | 14.5 | 0.00 | 0.00 | 0.00 | 12 | 1011.1 |
| 20260508213403 | 35 | 358 | 4.8 | 14.5 | 0.00 | 0.00 | 0.00 | 12 | 1011.1 |
| 20260508212903 | 35 | 228 | 3.2 | 20.9 | 0.00 | 0.00 | 0.00 | 12 | 1011.2 |
| 20260508212404 | 35 | 169 | 6.4 | 20.9 | 0.00 | 0.00 | 0.00 | 11 | 1011.3 |
| 20260508211902 | 35 | 213 | 4.8 | 16.1 | 0.00 | 0.00 | 0.00 | 11 | 1011.4 |
| 20260508210903 | 35 | 230 | 4.8 | 16.1 | 0.00 | 0.00 | 0.00 | 11 | 1011.4 |
| 20260508210403 | 35 | 214 | 4.8 | 16.1 | 0.00 | 0.00 | 0.00 | 12 | 1011.5 |
| 20260508205903 | 35 | 328 | 3.2 | 14.5 | 0.00 | 0.00 | 0.00 | 13 | 1011.5 |
| 20260508205402 | 35 | 216 | 4.8 | 16.1 | 0.00 | 0.00 | 0.00 | 12 | 1011.7 |
| 20260508204902 | 35 | 166 | 3.2 | 16.1 | 0.00 | 0.00 | 0.00 | 12 | 1011.7 |
| 20260508204402 | 35 | 337 | 4.8 | 16.1 | 0.00 | 0.00 | 0.00 | 12 | 1011.8 |
| 20260508203903 | 35 | 220 | 3.2 | 12.9 | 0.00 | 0.00 | 0.00 | 12 | 1011.7 |
| 20260508202403 | 35 | 265 | 3.2 | 19.3 | 0.00 | 0.00 | 0.00 | 12 | 1012.1 |
| 20260508201902 | 35 | 291 | 8.0 | 19.3 | 0.00 | 0.00 | 0.00 | 14 | 1012.0 |
| 20260508201402 | 35 | 229 | 3.2 | 12.9 | 0.00 | 0.00 | 0.00 | 13 | 1012.1 |
| 20260508200902 | 35 | 196 | 3.2 | 19.3 | 0.00 | 0.00 | 0.00 | 13 | 1012.1 |
| 20260508200403 | 34 | 232 | 4.8 | 19.3 | 0.00 | 0.00 | 0.00 | 13 | 1012.3 |
| 20260508195903 | 34 | 159 | 3.2 | 14.5 | 0.00 | 0.00 | 0.00 | 13 | 1012.3 |
| 20260508194903 | 34 | 213 | 6.4 | 19.3 | 0.00 | 0.00 | 0.00 | 14 | 1012.6 |
| 20260508194403 | 33 | 236 | 3.2 | 16.1 | 0.00 | 0.00 | 0.00 | 14 | 1012.6 |
| 20260508193903 | 33 | 329 | 3.2 | 16.1 | 0.00 | 0.00 | 0.00 | 14 | 1012.7 |
| 20260508193403 | 33 | 177 | 3.2 | 12.9 | 0.00 | 0.00 | 0.00 | 14 | 1012.7 |
| 20260508192902 | 33 | 219 | 4.8 | 16.1 | 0.00 | 0.00 | 0.00 | 14 | 1012.7 |
| 20260508192402 | 33 | 301 | 4.8 | 16.1 | 0.00 | 0.00 | 0.00 | 14 | 1012.8 |
| 20260508191903 | 33 | 228 | 3.2 | 16.1 | 0.00 | 0.00 | 0.00 | 14 | 1012.9 |
| 20260508191403 | 33 | 345 | 4.8 | 14.5 | 0.00 | 0.00 | 0.00 | 15 | 1012.9 |
| 20260508190903 | 33 | 161 | 3.2 | 9.7 | 0.00 | 0.00 | 0.00 | 14 | 1013.1 |
| 20260508190403 | 33 | 221 | 3.2 | 11.3 | 0.00 | 0.00 | 0.00 | 14 | 1013.2 |